FW3855 Weather Reports


time (UTC)temp
C
wind
direction
speed
KPH
gust
KPH
rain 1hr
cm
rain 24hr
cm
rain mn
cm
humidity
%
barometer
mb
20260505053444 12 184 4.8 12.9 0.00 0.00 0.00 27 1012.5
20260505052944 12 141 4.8 12.9 0.00 0.00 0.00 27 1012.6
20260505051944 12 204 6.4 20.9 0.00 0.00 0.00 26 1012.6
20260505050946 13 161 11.3 32.2 0.00 0.00 0.00 24 1012.6
20260505050445 13 193 11.3 32.2 0.00 0.00 0.00 25 1012.6
20260505041446 13 62 9.7 24.1 0.00 0.00 0.00 18 1012.4
20260505040948 13 149 11.3 30.6 0.00 0.00 0.00 20 1012.5
20260505040444 13 186 12.9 30.6 0.00 0.00 0.00 17 1012.6
20260505035944 13 149 9.7 24.1 0.00 0.00 0.00 18 1012.6
20260505035444 13 199 9.7 24.1 0.00 0.00 0.00 18 1012.6
20260505034944 13 167 11.3 25.7 0.00 0.00 0.00 19 1012.5
20260505033440 14 204 9.7 20.9 0.00 0.00 0.00 19 1012.1
20260505032440 14 214 8.0 25.7 0.00 0.00 0.00 17 1012.3
20260505031942 14 242 11.3 29.0 0.00 0.00 0.00 15 1012.1
20260505031441 14 188 9.7 29.0 0.00 0.00 0.00 14 1011.9
20260505030940 14 233 8.0 24.1 0.00 0.00 0.00 13 1012.0
20260505030442 14 163 9.7 24.1 0.00 0.00 0.00 14 1011.9
20260505025941 14 165 9.7 22.5 0.00 0.00 0.00 15 1011.9
20260505025435 14 127 8.0 24.1 0.00 0.00 0.00 14 1011.9
20260505024936 14 203 4.8 24.1 0.00 0.00 0.00 14 1011.7
20260505024437 14 161 4.8 16.1 0.00 0.00 0.00 14 1011.8
20260505023437 14 139 6.4 12.9 0.00 0.00 0.00 16 1011.8
20260505022934 15 182 6.4 14.5 0.00 0.00 0.00 16 1011.7
20260505022435 15 193 8.0 22.5 0.00 0.00 0.00 16 1011.7
20260505021940 15 165 8.0 22.5 0.00 0.00 0.00 15 1011.7
20260505021435 15 210 4.8 17.7 0.00 0.00 0.00 16 1011.7
20260505020934 15 250 3.2 16.1 0.00 0.00 0.00 16 1011.6
20260505020429 15 236 3.2 12.9 0.00 0.00 0.00 15 1011.7
20260505015930 15 163 3.2 12.9 0.00 0.00 0.00 15 1011.7
20260505015425 15 152 4.8 14.5 0.00 0.00 0.00 15 1011.7
20260505014918 15 259 4.8 16.1 0.00 0.00 0.00 15 1011.8
20260505014417 15 103 6.4 16.1 0.00 0.00 0.00 14 1011.7
20260505013916 16 165 8.0 17.7 0.00 0.00 0.00 13 1011.7
20260505013416 16 203 8.0 17.7 0.00 0.00 0.00 13 1011.6
20260505012417 16 229 8.0 25.7 0.00 0.00 0.00 11 1011.6
20260505011916 16 136 8.0 25.7 0.00 0.00 0.00 11 1011.6
20260505011415 16 212 9.7 24.1 0.00 0.00 0.00 10 1011.7
20260505010915 16 167 11.3 25.7 0.00 0.00 0.00 9 1011.7
20260505005912 16 162 11.3 27.4 0.00 0.00 0.00 8 1011.6
20260505004411 17 169 4.8 22.5 0.00 0.00 0.00 7 1011.7
20260505003911 17 290 4.8 17.7 0.00 0.00 0.00 9 1011.7
20260505003413 18 252 6.4 19.3 0.00 0.00 0.00 10 1011.8
20260505002913 18 214 8.0 19.3 0.00 0.00 0.00 12 1011.6
20260505002408 18 124 8.0 20.9 0.00 0.00 0.00 7 1011.5
20260505001908 18 219 6.4 20.9 0.00 0.00 0.00 6 1011.7
20260505001410 18 214 4.8 17.7 0.00 0.00 0.00 5 1011.5
20260505000907 18 229 8.0 25.7 0.00 0.00 0.00 6 1011.6
20260505000406 18 156 6.4 25.7 0.00 0.00 0.00 6 1011.6
20260504235401 18 232 8.0 20.9 0.00 0.00 0.00 10 1011.6
20260504234903 18 124 9.7 20.9 0.00 0.00 0.00 12 1011.6
20260504234402 19 259 8.0 20.9 0.00 0.00 0.00 9 1011.6
20260504233901 19 89 6.4 20.9 0.00 0.00 0.00 6 1011.6
20260504233402 20 211 4.8 20.9 0.00 0.00 0.00 7 1011.5
20260504232902 20 267 4.8 16.1 0.00 0.00 0.00 8 1011.6
20260504232404 20 218 6.4 17.7 0.00 0.00 0.00 7 1011.5
20260504231901 19 191 6.4 17.7 0.00 0.00 0.00 7 1011.5
20260504231402 19 201 6.4 22.5 0.00 0.00 0.00 7 1011.5
20260504230901 19 200 9.7 22.5 0.00 0.00 0.00 7 1011.6
20260504225905 19 200 8.0 32.2 0.00 0.00 0.00 7 1011.8
20260504224349 19 249 6.4 19.3 0.00 0.00 0.00 10 1011.8
20260504223841 19 119 4.8 16.1 0.00 0.00 0.00 12 1011.8
20260504223335 19 197 6.4 29.0 0.00 0.00 0.00 15 1011.7
20260504222829 19 311 8.0 29.0 0.00 0.00 0.00 11 1011.8
20260504221818 19 139 6.4 20.9 0.00 0.00 0.00 13 1011.8
20260504221314 18 283 11.3 32.2 0.00 0.00 0.00 13 1011.8
20260504220806 18 158 11.3 32.2 0.00 0.00 0.00 12 1012.1
20260504220259 19 227 9.7 25.7 0.00 0.00 0.00 12 1011.9
20260504215754 19 150 9.7 22.5 0.00 0.00 0.00 12 1011.9
20260504215247 19 190 8.0 22.5 0.00 0.00 0.00 11 1012.1
20260504214744 19 208 9.7 32.2 0.00 0.00 0.00 12 1012.1
20260504214235 18 146 12.9 37.0 0.00 0.00 0.00 13 1012.0
20260504213730 18 106 12.9 37.0 0.00 0.00 0.00 13 1012.1
20260504213223 19 98 11.3 22.5 0.00 0.00 0.00 14 1012.1
20260504212718 18 219 11.3 30.6 0.00 0.00 0.00 15 1012.3
20260504211211 19 197 4.8 16.1 0.00 0.00 0.00 20 1012.5
20260504210711 18 198 8.0 37.0 0.00 0.00 0.00 20 1012.5
20260504210216 18 94 11.3 37.0 0.00 0.00 0.00 21 1012.7
20260504205710 18 208 9.7 30.6 0.00 0.00 0.00 22 1012.7
20260504205207 18 151 9.7 30.6 0.00 0.00 0.00 23 1012.7
20260504204205 18 250 9.7 22.5 0.00 0.00 0.00 25 1012.5
20260504203705 18 173 8.0 22.5 0.00 0.00 0.00 25 1012.5
20260504203208 18 82 8.0 24.1 0.00 0.00 0.00 25 1012.6
20260504202708 18 145 11.3 29.0 0.00 0.00 0.00 26 1012.3
20260504202206 17 196 12.9 40.2 0.00 0.00 0.00 28 1012.6
20260504201706 17 155 9.7 40.2 0.00 0.00 0.00 29 1012.6
20260504201210 17 101 8.0 22.5 0.00 0.00 0.00 29 1012.6
20260504200205 17 82 11.3 29.0 0.00 0.00 0.00 30 1012.7
20260504195707 17 125 11.3 37.0 0.00 0.00 0.00 30 1012.7
20260504195200 17 217 12.9 37.0 0.00 0.00 0.00 31 1012.9
20260504194148 17 233 9.7 27.4 0.00 0.00 0.00 32 1012.8
20260504191127 16 150 14.5 43.5 0.00 0.00 0.00 35 1013.3
20260504190626 16 229 11.3 37.0 0.00 0.00 0.00 35 1013.5
20260504190127 16 183 9.7 35.4 0.00 0.00 0.00 36 1013.6
20260504185127 16 135 9.7 25.7 0.00 0.00 0.00 37 1013.0
20260504184627 16 116 9.7 29.0 0.00 0.00 0.00 36 1013.3
20260504184129 16 278 11.3 33.8 0.00 0.00 0.00 36 1013.4
20260504183130 16 248 8.0 20.9 0.00 0.00 0.00 38 1013.4
20260504182627 16 148 6.4 19.3 0.00 0.00 0.00 37 1013.2
20260504182126 16 293 9.7 35.4 0.00 0.00 0.00 39 1013.4
20260504181628 16 35 14.5 35.4 0.00 0.00 0.00 40 1013.5
20260504181128 16 283 12.9 33.8 0.00 0.00 0.00 40 1013.4
20260504180627 16 174 11.3 41.8 0.00 0.00 0.00 40 1013.6
20260504180127 15 189 11.3 41.8 0.00 0.00 0.00 41 1013.3
20260504175628 15 137 12.9 40.2 0.00 0.00 0.00 41 1013.5
20260504175125 15 201 16.1 33.8 0.00 0.00 0.00 42 1013.3
20260504174625 15 172 16.1 54.7 0.00 0.00 0.00 43 1013.5
20260504174124 15 122 12.9 54.7 0.00 0.00 0.00 43 1013.3
20260504173624 15 185 12.9 29.0 0.00 0.00 0.00 42 1013.2
20260504173126 15 162 11.3 29.0 0.00 0.00 0.00 42 1013.3
20260504172624 15 164 11.3 25.7 0.00 0.00 0.00 42 1013.3
20260504172124 15 220 12.9 29.0 0.00 0.00 0.00 43 1013.0
20260504171625 15 170 12.9 29.0 0.00 0.00 0.00 43 1013.3
20260504171124 15 150 11.3 37.0 0.00 0.00 0.00 43 1012.9
20260504170624 15 234 12.9 37.0 0.00 0.00 0.00 42 1012.9
20260504170125 15 170 11.3 35.4 0.00 0.00 0.00 42 1013.2
20260504160127 15 134 8.0 29.0 0.00 0.00 0.00 46 1013.0
20260504150616 14 79 8.0 27.4 0.00 0.00 0.00 44 1013.2
20260504150109 14 153 8.0 27.4 0.00 0.00 0.00 44 1013.2
20260504141104 14 184 6.4 19.3 0.00 0.00 0.00 42 1012.7
20260504140606 13 175 6.4 24.1 0.00 0.00 0.00 41 1012.8
20260504140105 13 139 4.8 24.1 0.00 0.00 0.00 41 1012.6
20260504081935 17 183 3.2 14.5 0.00 0.00 0.00 29 1011.6
20260504081429 17 197 3.2 11.3 0.00 0.00 0.00 29 1011.6
20260504080419 17 195 3.2 12.9 0.00 0.00 0.00 28 1012.1
20260504070406 18 193 3.2 11.3 0.00 0.00 0.00 24 1011.9